STARLINK-1579, 46083

Orbit data source: Space-Track

STARLINK-1579, 46083 is a payload satellite owned by SpaceX/Seattle (US) in LEO that was launched on Fri, 07 Aug 2020 UTC via an FALCON 9 launch vehicle from the Air Force Eastern Test Range (AFETR). Payload-class satellites include a variety of spacecraft equipped with specific instruments for various scientific and technological missions. These include communications satellites like Starlink; space stations such as the ISS; scientific satellites like the Hubble; Earth observation satellites from companies like Planet Labs, Umbra, and HawkEye 360; GPS; miniature CubeSats for education and research; and military/defense satellites.

Loading next visibility...
Identifier
46083, 2020-055BJ
Orbit
LEO
Country
Flag of USUS
Related business
Manufacturer
SpaceX/Seattle
Mission
Operational Commercial Communications
Bus & Motor
STARLINK, Unknown motor
Mass
260 kg wet, ~248 kg dry
Launch date (UTC)
2020-08-07 (6 years ago)
Launch vehicle
FALCON 9
Launch site
Air Force Eastern Test Range (AFETR)
Object type
Payload
Rocket body
Debris
Shape & HBR
Box + 1 Pan, 10.1 m
Radar Cross Section
13.562 m², Large (>1 m²)

Expand to show TLE details & history
Last TLE update: 1 day ago

TLE from 1 day ago
0 STARLINK-1579
1 46083U 20055BJ  26126.55846813  .00001341  00000-0  54946-4 0  9991
2 46083  53.1603 192.1265 0001397  68.8579 291.2572 15.31709460318095
Epoch: 2026-05-06T13:24Z
TLE epoch observation values (Epoch: 2026-05-06T13:24:11.646Z)
Latitude
0.00001°
Longitude
126.66075°
Altitude
471.265 km
Speed
7.632 km/s
True Right ascension
12h 48m 30s
True Declination
0° 00' 00"
Sunlit
Object was in full shadow at epoch
Visualization orbit readout
Latitude
Unknown
Longitude
Unknown
Altitude
Unknown
Speed
Unknown
Apparent Right ascension
Unknown
Apparent Declination
Unknown
Sunlit
N/A
Visualization observer readout
Local Sidereal Time
04:34:06
Azimuth
Unknown
Elevation
Unknown
Doppler factor
Unknown
Orbital elements
Apogee altitude
471.925 km
Perigee altitude
470.012 km
Semi-major axis
6,849.105 km
Eccentricity
0.00014
Inclination
53.1603°
RAAN
192.1265°
Arg. of periapsis
68.8579°
True anomaly
291.24228°
Mean anomaly
291.2572°
Eccentric anomaly
291.24974°
Mean motion
3.82906 °/min
Orbital period
94.02 mins
BSTAR
0.000054946
Loading maneuver chart data...
Computing Atmospheric mass density...
Loading historical data...
Loading historical data...
Loading historical data...
Loading historical data...
Loading historical data...
Loading historical data...
Loading historical data...

Documentation

Showing up to 5 results
|